Find STARLINK-37495

NORAD ID: 68841 Int'l Des: 2026-094C Owner: starlink Country: USA Constellation: starlink operational
LEOCIRCULARRETROGRADE

Live Position

Loading 3D Globe...

About STARLINK-37495

Description loading...

Upcoming Passes

Passes for default location (London). Set your location on the main map for personalized predictions.

Altitude History

Loading altitude history...

Two-Line Element Set

1 68841U 26094C 26120.66670139 -.01746654 97990-3 -25907-2 0 9994
2 68841 97.2839 134.1592 0001423 83.2444 124.8677 16.05045953 1720
Epoch: Apr 30, 2026 • Age: 31 hours

Current Status

Altitude 274.6 km
Velocity 7.74 km/s
Sub-Earth Point 23.66°N, 67.96°W
Type internet

Most Searched